Flag Weather past 2 weeks in Valdivia, Chile

Now
54 °F

Partly sunny.


Feels Like: 50 °F
Forecast: N/A
Wind: 12 mph from Southwest

Location: Puerto Montt Airport

Current Time: Nov 28, 2014 at 8:01:53 PM

Latest Report: Nov 28, 2014 at 7:00 PM


Visibility: N/A

Pressure: 29.95 "Hg

Humidity: 77%

Dew point: 46 °F

Location of ValdiviaLocation

Historic Weather in Valdivia — Graph

°F

Valdivia temperature yesterday

Maximum temperature yesterday: 59 °F (at 4:00 PM)
Minimum temperature yesterday: 45 °F (at 2:00 AM)
Average temperature yesterday: 52 °F

Past Weeks' High & Low Weather Summary

 TemperatureHumidityPressure
High68 °F (Nov 16, 4:00 PM)100% (Nov 15, 9:00 AM)30.30 "Hg (Nov 15, 9:00 AM)
Low39 °F (Nov 21, 5:00 AM)45% (Nov 23, 1:00 PM)29.80 "Hg (Nov 18, 12:00 AM)
Average53 °F82%30.08 "Hg
* Reported Nov 13 7:00 PM — Nov 28 7:00 PM, Valdivia, Weather by CustomWeather, © 2014

Note: Actual official high and low records may vary slightly from our data, if they occured in-between our weather recording intervals... More about our weather records

Advertising

Valdivia weather history for previous 24 hours

 ConditionsComfort  
Time TempWeatherWind HumidityBarometerVisibility
7:00 PM
Nov 28
54 °FPartly sunny.12 mph77%29.95 "HgN/A
6:00 PM55 °FPartly sunny.10 mph77%29.95 "HgN/A
5:00 PM54 °FSprinkles. Partly sunny.6 mph82%29.92 "HgN/A
4:00 PM55 °FOvercast.9 mph82%29.92 "HgN/A
3:00 PM54 °FSprinkles. Overcast.9 mph88%29.89 "HgN/A
2:00 PM54 °FSprinkles. Overcast.12 mph88%29.92 "Hg3 mi
1:00 PM59 °FMostly cloudy.6 mph77%29.89 "HgN/A
12:00 PM59 °FOvercast.7 mph77%29.89 "HgN/A
11:00 AM55 °FMore clouds than sun.7 mph94%29.89 "HgN/A
10:00 AM54 °FLight rain. More clouds than sun.7 mph94%29.92 "Hg5 mi
9:00 AM52 °FLight rain. Mostly cloudy.8 mph94%29.92 "Hg2 mi
8:00 AM52 °FLight rain. More clouds than sun.6 mph94%29.92 "Hg3 mi
7:00 AM52 °FSprinkles. Overcast.7 mph94%29.89 "Hg3 mi
6:00 AM52 °FOvercast.10 mph94%29.89 "HgN/A
5:00 AM52 °FSprinkles. Mostly cloudy.9 mph94%29.92 "Hg3 mi
4:00 AM54 °FSprinkles. Overcast.10 mph88%29.92 "Hg4 mi
3:00 AM54 °FScattered showers. Partly cloudy.10 mph88%29.95 "Hg4 mi
2:00 AM52 °FSprinkles. Passing clouds.9 mph100%29.98 "Hg4 mi
1:00 AM52 °FSprinkles. Passing clouds.6 mph94%29.98 "Hg4 mi
12:00 AM52 °FSprinkles. Passing clouds.6 mph94%30.01 "Hg3 mi
11:00 PM
Nov 27
54 °FSprinkles. Passing clouds.3 mph88%30.01 "Hg3 mi
10:00 PM55 °FPartly cloudy.7 mph82%30.01 "HgN/A
9:00 PM55 °FPartly sunny.5 mph88%30.01 "HgN/A
8:00 PM55 °FBroken clouds.5 mph88%30.01 "HgN/A
Weather by CustomWeather, © 2014

See weather overviewHow to use our weather pages